Lid_Strength_Index
4 5 5 5 5 5 5 7 10 5 8 11 14 14 12 9 8 9 9 10 11 11 11 13 13 12 11 8 9 11 12 15 16 14 11 10 12 14 15 16 17 19 18 17
4 5 5 5 4 4 5 7 8 4 8 14 14 12 9 8 7 8 10 9 8 9 12 12 11 10 9 8 9 11 11 15 16 14 12 10 11 11 15 16 17 18 19 17
4 4 4 4 3 4 5 7 10 7 8 11 12 12 11 9 6 6 8 8 9 11 12 12 12 11 9 8 7 5 8 15 15 16 14 12 12 11 12 14 16 17 17 13
4 4 4 3 2 4 6 7 9 8 10 9 9 11 10 9 9 6 8 10 10 11 13 13 12 11 11 8 6 10 11 14 13 13 11 11 11 11 11 14 14 15 13 13
4 3 2 2 2 4 5 7 8 7 8 8 10 10 10 9 8 9 9 10 10 10 12 11 12 11 12 11 10 12 11 13 13 13 10 10 12 11 11 12 12 12 11 12
4 3 2 2 3 4 6 5 5 6 8 9 9 9 9 8 8 7 8 8 9 10 10 9 9 10 10 9 10 12 12 13 14 16 12 12 14 12 11 11 10 10 13 11
4 2 1 2 2 4 6 6 6 8 11 9 9 8 8 8 8 9 8 8 8 9 8 8 8 9 9 9 11 10 12 13 14 15 14 18 13 8 8 10 9 9 9 9
3 2 1 1 2 4 5 5 5 7 11 9 8 8 8 8 8 8 8 7 8 8 9 11 12 12 11 9 10 11 11 14 15 16 17 15 11 9 10 11 12 8 9 8
3 2 1 1 2 4 6 6 4 6 9 9 7 8 7 9 9 9 7 7 7 8 10 12 15 14 13 13 12 12 13 13 14 16 17 18 12 8 7 8 14 8 8 8
3 1 1 1 2 4 5 5 4 5 8 8 7 9 9 7 8 9 8 7 7 8 12 13 13 13 10 14 14 14 14 14 15 15 16 14 9 7 7 14 12 7 7 7
3 1 1 1 2 2 4 5 3 4 8 7 5 4 7 7 7 9 7 8 7 8 11 11 12 12 11 13 12 13 13 15 15 16 16 16 7 8 11 9 8 7 7 6
4 2 2 1 2 2 3 5 3 2 6 6 4 2 2 3 4 6 7 8 8 7 10 11 12 12 13 14 15 12 14 12 13 13 13 9 8 8 7 6 7 7 7 7
4 2 2 1 2 3 3 6 5 4 6 6 6 5 4 4 4 4 6 7 6 8 8 11 11 12 13 14 13 13 11 11 11 11 10 9 8 7 6 6 6 6 6 7
4 3 2 2 2 3 3 6 5 5 6 9 7 3 4 2 4 4 5 6 8 8 9 11 12 12 11 13 12 12 11 9 10 11 9 8 7 6 6 6 6 6 7 8
4 3 3 3 2 3 5 6 5 4 6 9 8 5 5 6 5 5 6 7 8 9 10 11 11 11 10 12 12 11 9 10 11 11 9 8 8 6 5 6 6 7 7 7
4 3 3 3 3 3 5 6 4 4 5 7 10 6 5 4 4 5 7 8 8 9 9 10 10 9 10 12 13 9 8 7 8 9 8 7 6 5 4 6 6 7 7 7
4 3 4 4 3 4 5 6 4 4 4 6 9 9 6 5 6 7 7 7 7 8 9 9 10 9 9 11 12 8 7 7 6 7 6 7 6 7 4 5 6 5 6 7
4 3 4 4 4 3 4 3 3 4 5 6 10 9 8 6 8 8 7 8 8 8 9 9 10 9 10 11 9 8 7 7 6 6 6 7 6 5 4 5 6 6 7 7
4 3 3 4 5 5 4 1 3 5 5 8 9 11 11 6 8 7 8 9 9 9 10 10 9 11 11 9 9 7 7 8 7 6 5 5 6 5 5 6 6 6 7 7
3 4 4 6 4 1 2 4 6 6 6 7 9 8 10 8 9 9 9 9 10 11 10 8 11 11 9 7 7 7 7 7 6 8 8 7 7 6 5 5 5 5 5 6
3 4 5 3 2 4 5 8 9 8 10 8 7 8 9 7 8 8 7 10 10 13 10 10 12 11 8 6 7 6 5 6 6 6 7 6 5 5 5 5 4 4 5 5
4 4 4 4 6 8 10 10 9 10 10 8 8 7 7 7 7 8 8 10 10 13 9 11 13 10 8 6 6 5 6 6 5 5 6 5 4 4 4 4 4 4 3 3
3 4 7 7 8 12 12 14 12 11 8 7 7 8 7 7 7 9 9 11 12 9 11 12 10 9 7 7 7 5 6 6 5 5 5 4 4 4 4 5 4 4 5 4
5 7 12 10 12 10 10 10 9 7 7 8 8 8 8 9 8 8 11 9 9 13 14 13 9 8 7 6 6 6 6 5 6 6 5 5 5 5 4 5 5 5 5 5
7 7 12 10 8 7 7 7 6 6 6 7 7 7 7 8 10 10 10 12 13 12 12 10 8 7 7 7 7 6 6 6 7 6 6 6 5 5 5 4 5 5 5 5
6 7 9 8 9 8 7 7 7 5 5 7 6 9 10 10 10 11 12 12 13 11 9 8 7 7 7 7 6 6 5 7 7 6 6 5 5 6 6 5 5 5 5 5
7 8 6 8 8 8 7 6 7 5 6 9 8 11 11 9 11 12 10 11 9 8 7 6 6 7 6 6 7 6 6 6 6 6 6 5 5 5 6 6 6 6 6 6